Date String (YYYY-MM-DD hh:mm:ss) UTC,Instrument flags,Ambient pressure (hPa),Sample flow (lpm),Bypass flow (lpm),Sample temperature (°C),Ambient temperature (°C),ASC tube jacket temperature (°C),LED temperature (°C),Box temperature (°C),Sample RH (%),Span deviation,Mass concentration (μg/m³),Mass concentration (μg/m³),Mass concentration (μg/m³)
DateTimeUTC,F1_M11,P_M11,Q1_M11,Q2_M11,T1_M11,T2_M11,T3_M11,T4_M11,T5_M11,U1_M11,ZSPAN_M11,X0_M11,X2_M11,X1_M11
2022-08-19 07:00:00,,0829.5,5.00,0.00,29.8,28.8,00.0,38.5,31.7,22.0,0000.0,0012.95,0006.44,0005.51
2022-08-19 07:01:00,,0829.5,5.00,0.00,29.8,28.9,00.0,38.5,31.8,22.0,0000.0,0012.93,0006.45,0005.52
2022-08-19 07:02:00,,0829.4,4.99,0.00,29.8,28.8,00.0,38.5,31.7,21.7,0000.0,0013.46,0006.47,0005.52
2022-08-19 07:03:00,,0829.4,5.00,0.00,29.8,28.2,00.0,38.4,31.5,21.6,0000.0,0013.55,0006.46,0005.52
2022-08-19 07:04:00,,0829.3,5.00,0.00,29.7,27.6,00.0,38.4,31.4,21.9,0000.0,0012.89,0006.42,0005.52
2022-08-19 07:05:00,,0829.3,5.00,0.00,29.7,27.5,00.0,38.4,31.4,22.2,0000.0,0012.70,0006.34,0005.52
2022-08-19 07:06:00,,0829.4,4.99,0.00,29.6,27.5,00.0,38.4,31.3,22.3,0000.0,0012.91,0006.35,0005.54
2022-08-19 07:07:00,,0829.4,5.01,0.00,29.6,27.6,00.0,38.4,31.3,22.1,0000.0,0012.74,0006.34,0005.54
2022-08-19 07:08:00,,0829.4,5.00,0.00,29.6,27.7,00.0,38.4,31.3,22.0,0000.0,0012.58,0006.33,0005.53
2022-08-19 07:09:00,,0829.2,5.00,0.00,29.5,27.8,00.0,38.4,31.3,22.0,0000.0,0012.01,0006.31,0005.51
2022-08-19 07:10:00,,0829.4,4.98,0.00,29.5,27.9,00.0,38.3,31.4,22.1,0000.0,0011.86,0006.28,0005.51
2022-08-19 07:11:00,,0829.2,5.01,0.00,29.5,28.0,00.0,38.3,31.4,22.2,0000.0,0011.88,0006.25,0005.49
2022-08-19 07:12:00,,0829.2,5.00,0.00,29.5,28.1,00.0,38.3,31.4,22.0,0000.0,0012.07,0006.25,0005.48
2022-08-19 07:13:00,,0829.2,5.00,0.00,29.6,28.2,00.0,38.3,31.4,21.9,0000.0,0011.59,0006.25,0005.46
2022-08-19 07:14:00,,0829.2,4.99,0.00,29.6,28.3,00.0,38.4,31.4,21.8,0000.0,0011.14,0006.19,0005.44
2022-08-19 07:15:00,,0829.2,5.00,0.00,29.6,28.4,00.0,38.4,31.5,21.8,0000.0,0010.97,0006.21,0005.43
2022-08-19 07:16:00,,0829.2,5.00,0.00,29.6,28.5,00.0,38.4,31.5,21.9,0000.0,0010.46,0006.18,0005.40
2022-08-19 07:17:00,,0829.3,5.00,0.00,29.6,28.5,00.0,38.4,31.5,21.8,0000.0,0010.27,0006.12,0005.36
2022-08-19 07:18:00,,0829.2,5.01,0.00,29.6,28.6,00.0,38.4,31.6,21.7,0000.0,0010.59,0006.11,0005.34
2022-08-19 07:19:00,,0829.2,5.00,0.00,29.7,28.6,00.0,38.4,31.6,21.7,0000.0,0010.75,0006.13,0005.34
2022-08-19 07:20:00,,0829.3,4.99,0.00,29.7,28.7,00.0,38.4,31.6,21.8,0000.0,0010.74,0006.12,0005.33
2022-08-19 07:21:00,,0829.3,5.00,0.00,29.7,28.7,00.0,38.4,31.7,21.7,0000.0,0010.66,0006.06,0005.31
2022-08-19 07:22:00,,0829.3,5.00,0.00,29.8,28.7,00.0,38.4,31.7,21.6,0000.0,0011.67,0006.05,0005.31
2022-08-19 07:23:00,,0829.3,5.01,0.00,29.8,28.8,00.0,38.5,31.7,21.6,0000.0,0012.11,0006.01,0005.29
2022-08-19 07:24:00,,0829.3,4.99,0.00,29.8,28.8,00.0,38.5,31.8,21.6,0000.0,0012.77,0006.00,0005.28
2022-08-19 07:25:00,,0829.3,5.01,0.00,29.8,28.8,00.0,38.5,31.7,21.6,0000.0,0013.31,0006.03,0005.30
2022-08-19 07:26:00,,0829.2,5.00,0.00,29.8,28.9,00.0,38.5,31.8,21.6,0000.0,0013.27,0006.02,0005.28
2022-08-19 07:27:00,,0829.2,5.00,0.00,29.9,28.6,00.0,38.5,31.7,21.6,0000.0,0013.34,0006.04,0005.29
2022-08-19 07:28:00,,0829.2,5.01,0.00,29.8,27.8,00.0,38.5,31.4,21.6,0000.0,0013.48,0006.07,0005.30
2022-08-19 07:29:00,,0829.2,5.00,0.00,29.7,27.4,00.0,38.4,31.3,21.8,0000.0,0013.15,0006.07,0005.31
2022-08-19 07:30:00,,0829.1,5.00,0.00,29.6,27.4,00.0,38.4,31.3,21.8,0000.0,0012.93,0006.03,0005.30
2022-08-19 07:31:00,,0829.1,4.99,0.00,29.6,27.4,00.0,38.4,31.3,21.9,0000.0,0012.80,0006.02,0005.31
2022-08-19 07:32:00,,0829.1,5.01,0.00,29.6,27.6,00.0,38.4,31.3,21.9,0000.0,0012.90,0006.04,0005.32
2022-08-19 07:33:00,,0829.1,4.99,0.00,29.5,27.7,00.0,38.4,31.3,21.9,0000.0,0012.36,0006.05,0005.32
2022-08-19 07:34:00,,0829.1,5.00,0.00,29.5,27.8,00.0,38.4,31.3,21.9,0000.0,0011.82,0006.06,0005.33
2022-08-19 07:35:00,,0829.0,5.00,0.00,29.5,28.0,00.0,38.4,31.3,22.0,0000.0,0011.44,0006.07,0005.33
2022-08-19 07:36:00,,0829.1,5.01,0.00,29.5,28.1,00.0,38.4,31.4,21.9,0000.0,0011.04,0006.05,0005.31
2022-08-19 07:37:00,,0829.1,5.00,0.00,29.5,28.2,00.0,38.4,31.4,21.9,0000.0,0011.15,0006.07,0005.31
2022-08-19 07:38:00,,0829.1,5.00,0.00,29.6,28.3,00.0,38.4,31.4,21.8,0000.0,0011.14,0006.06,0005.30
2022-08-19 07:39:00,,0829.1,5.00,0.00,29.6,28.3,00.0,38.4,31.4,21.9,0000.0,0010.98,0006.06,0005.30
2022-08-19 07:40:00,,0829.1,5.00,0.00,29.6,28.4,00.0,38.4,31.5,21.8,0000.0,0011.10,0006.05,0005.29
2022-08-19 07:41:00,,0829.1,5.00,0.00,29.6,28.5,00.0,38.4,31.5,21.7,0000.0,0011.14,0006.07,0005.29
2022-08-19 07:42:00,,0829.1,5.00,0.00,29.6,28.5,00.0,38.4,31.5,21.7,0000.0,0011.33,0006.07,0005.27
2022-08-19 07:43:00,,0829.1,5.00,0.00,29.7,28.6,00.0,38.4,31.5,21.7,0000.0,0011.44,0006.08,0005.27
2022-08-19 07:44:00,,0829.0,5.00,0.00,29.7,28.6,00.0,38.4,31.6,21.6,0000.0,0011.19,0006.13,0005.27
2022-08-19 07:45:00,,0829.0,5.01,0.00,29.7,28.6,00.0,38.4,31.6,21.7,0000.0,0011.22,0006.13,0005.26
2022-08-19 07:46:00,,0829.0,5.00,0.00,29.7,28.7,00.0,38.4,31.6,21.7,0000.0,0011.34,0006.09,0005.27
2022-08-19 07:47:00,,0829.0,5.00,0.00,29.7,28.7,00.0,38.5,31.7,21.6,0000.0,0011.26,0006.10,0005.28
2022-08-19 07:48:00,,0829.0,5.00,0.00,29.8,28.7,00.0,38.5,31.7,21.6,0000.0,0011.18,0006.06,0005.28
2022-08-19 07:49:00,,0828.9,5.00,0.00,29.8,28.8,00.0,38.5,31.7,21.5,0000.0,0011.34,0006.08,0005.30
2022-08-19 07:50:00,,0828.9,5.00,0.00,29.8,28.8,00.0,38.5,31.7,21.6,0000.0,0011.53,0006.11,0005.31
2022-08-19 07:51:00,,0828.9,5.00,0.00,29.8,28.8,00.0,38.5,31.7,21.5,0000.0,0011.34,0006.10,0005.32
2022-08-19 07:52:00,,0828.9,5.01,0.00,29.8,28.9,00.0,38.5,31.7,21.4,0000.0,0011.80,0006.09,0005.32
2022-08-19 07:53:00,,0828.9,5.00,0.00,29.9,28.9,00.0,38.6,31.8,21.3,0000.0,0012.08,0006.11,0005.34
2022-08-19 07:54:00,,0828.8,5.00,0.00,29.9,28.9,00.0,38.6,31.9,21.4,0000.0,0011.88,0006.14,0005.34
2022-08-19 07:55:00,,0828.8,5.00,0.00,29.9,28.8,00.0,38.6,31.8,21.3,0000.0,0011.98,0006.11,0005.35
2022-08-19 07:56:00,,0828.9,4.99,0.00,29.9,28.1,00.0,38.5,31.5,21.4,0000.0,0012.66,0006.12,0005.37
2022-08-19 07:57:00,,0829.2,5.00,0.00,29.8,27.5,00.0,38.5,31.4,21.5,0000.0,0012.42,0006.13,0005.38
2022-08-19 07:58:00,,0829.3,5.01,0.00,29.7,27.4,00.0,38.5,31.3,21.6,0000.0,0012.59,0006.13,0005.38
2022-08-19 07:59:00,,0829.3,5.00,0.00,29.6,27.5,00.0,38.5,31.3,21.8,0000.0,0012.55,0006.13,0005.39
